When you browse on this site, cookies collect data to enhance your experience and personalize the content and advertising you see.
Visit our Privacy Policy to learn more. By continuing to use the site, you agree to this use of cookies and data.
  • en Suisse
  • Liste des pays
  • À 7 jours
  • Température de l'eau
  • Carte météo
  • Widgets météo
  • user-avatar
    Se connecter

    Météo par heure à Abomey

    Ce jour, 10 Avril, Vendredi

    Heure Température Précipitation Vent Pression Humidité
    00:00 +27°C° 0 mm 2 m/s 738 mmHg 86%
    01:00 +27°C° 0 mm 1 m/s 738 mmHg 87%
    02:00 +27°C° 0 mm 1 m/s 737 mmHg 89%
    03:00 +26°C° 0 mm 1 m/s 736 mmHg 90%
    04:00 +26°C° 0.3 mm 1 m/s 737 mmHg 90%
    05:00 +26°C° 0.3 mm 2 m/s 738 mmHg 90%
    06:00 +26°C° 0 mm 4 m/s 739 mmHg 87%
    07:00 +28°C° 0.2 mm 5 m/s 739 mmHg 75%
    08:00 +30°C° 0.2 mm 5 m/s 740 mmHg 63%
    09:00 +32°C° 0.2 mm 5 m/s 740 mmHg 51%
    10:00 +34°C° 0 mm 5 m/s 739 mmHg 45%
    11:00 +36°C° 0 mm 4 m/s 739 mmHg 40%
    12:00 +37°C° 0 mm 3 m/s 738 mmHg 37%
    13:00 +38°C° 0 mm 3 m/s 737 mmHg 34%
    14:00 +39°C° 0 mm 2 m/s 736 mmHg 32%
    15:00 +39°C° 0 mm 2 m/s 735 mmHg 30%
    16:00 +38°C° 0 mm 2 m/s 736 mmHg 33%
    17:00 +36°C° 0 mm 1 m/s 736 mmHg 36%
    18:00 +34°C° 0 mm 1 m/s 736 mmHg 40%
    19:00 +33°C° 0 mm 1 m/s 737 mmHg 46%
    20:00 +32°C° 0 mm 2 m/s 737 mmHg 53%
    21:00 +31°C° 0 mm 2 m/s 738 mmHg 59%
    22:00 +30°C° 0 mm 2 m/s 738 mmHg 63%
    23:00 +30°C° 0 mm 2 m/s 738 mmHg 66%

    Demain, 11 Avril, Samedi

    Heure Température Précipitation Vent Pression Humidité
    00:00 +29°C° 0 mm 2 m/s 738 mmHg 70%
    01:00 +29°C° 0 mm 2 m/s 737 mmHg 71%
    02:00 +28°C° 0 mm 2 m/s 737 mmHg 73%
    03:00 +28°C° 0 mm 1 m/s 737 mmHg 75%
    04:00 +28°C° 0.1 mm 1 m/s 737 mmHg 76%
    05:00 +27°C° 0.1 mm 1 m/s 738 mmHg 78%
    06:00 +27°C° 0.1 mm 1 m/s 738 mmHg 79%
    07:00 +29°C° 0 mm 2 m/s 739 mmHg 72%
    08:00 +31°C° 0 mm 2 m/s 739 mmHg 64%
    09:00 +34°C° 0 mm 2 m/s 740 mmHg 56%
    10:00 +35°C° 0.2 mm 2 m/s 739 mmHg 51%
    11:00 +37°C° 0.2 mm 2 m/s 739 mmHg 46%
    12:00 +38°C° 0.2 mm 2 m/s 739 mmHg 40%
    13:00 +38°C° 0 mm 2 m/s 738 mmHg 41%
    14:00 +37°C° 0 mm 3 m/s 737 mmHg 41%
    15:00 +37°C° 0 mm 3 m/s 737 mmHg 42%
    16:00 +35°C° 0.1 mm 3 m/s 737 mmHg 47%
    17:00 +34°C° 0.1 mm 3 m/s 737 mmHg 53%
    18:00 +31°C° 0.1 mm 2 m/s 737 mmHg 59%
    19:00 +31°C° 0.2 mm 2 m/s 738 mmHg 62%
    20:00 +30°C° 0.2 mm 2 m/s 738 mmHg 65%
    21:00 +29°C° 0.2 mm 2 m/s 739 mmHg 68%
    22:00 +29°C° 0 mm 2 m/s 739 mmHg 70%
    23:00 +29°C° 0 mm 2 m/s 739 mmHg 72%

    Après-demain, 12 Avril, Dimanche

    Heure Température Précipitation Vent Pression Humidité
    00:00 +28°C° 0 mm 2 m/s 739 mmHg 74%
    01:00 +28°C° 0 mm 2 m/s 738 mmHg 75%
    02:00 +28°C° 0 mm 2 m/s 738 mmHg 76%
    03:00 +27°C° 0 mm 2 m/s 738 mmHg 77%
    04:00 +27°C° 0 mm 2 m/s 738 mmHg 77%
    05:00 +27°C° 0 mm 1 m/s 738 mmHg 77%
    06:00 +27°C° 0 mm 1 m/s 738 mmHg 78%
    07:00 +28°C° 0 mm 1 m/s 738 mmHg 73%
    08:00 +29°C° 0 mm 2 m/s 739 mmHg 69%
    09:00 +30°C° 0 mm 2 m/s 740 mmHg 64%
    10:00 +32°C° 0 mm 2 m/s 739 mmHg 57%
    11:00 +35°C° 0 mm 2 m/s 739 mmHg 49%
    12:00 +36°C° 0 mm 1 m/s 738 mmHg 42%
    13:00 +37°C° 0 mm 2 m/s 738 mmHg 41%
    14:00 +37°C° 0 mm 2 m/s 737 mmHg 39%
    15:00 +37°C° 0 mm 2 m/s 737 mmHg 38%
    16:00 +36°C° 0 mm 2 m/s 737 mmHg 43%
    17:00 +35°C° 0 mm 2 m/s 737 mmHg 48%
    18:00 +32°C° 0 mm 1 m/s 737 mmHg 53%
    19:00 +31°C° 0 mm 2 m/s 737 mmHg 59%
    20:00 +30°C° 0 mm 3 m/s 738 mmHg 65%
    21:00 +29°C° 0 mm 4 m/s 738 mmHg 71%
    22:00 +28°C° 0 mm 3 m/s 738 mmHg 74%
    23:00 +28°C° 0 mm 3 m/s 738 mmHg 77%

    13 Avril, Lundi

    Heure Température Précipitation Vent Pression Humidité
    00:00 +27°C° 0 mm 2 m/s 737 mmHg 80%
    01:00 +27°C° 0 mm 2 m/s 737 mmHg 81%
    02:00 +27°C° 0 mm 2 m/s 737 mmHg 82%
    03:00 +27°C° 0 mm 2 m/s 736 mmHg 83%
    04:00 +26°C° 0 mm 2 m/s 737 mmHg 85%
    05:00 +26°C° 0 mm 2 m/s 737 mmHg 87%
    06:00 +26°C° 0 mm 1 m/s 737 mmHg 89%
    07:00 +28°C° 0 mm 2 m/s 738 mmHg 79%
    08:00 +30°C° 0 mm 2 m/s 738 mmHg 69%
    09:00 +32°C° 0 mm 2 m/s 739 mmHg 59%
    10:00 +35°C° 0 mm 2 m/s 739 mmHg 52%
    11:00 +37°C° 0 mm 2 m/s 738 mmHg 45%
    12:00 +39°C° 0 mm 2 m/s 738 mmHg 38%
    13:00 +38°C° 0 mm 2 m/s 737 mmHg 38%
    14:00 +38°C° 0 mm 3 m/s 736 mmHg 38%
    15:00 +38°C° 0 mm 3 m/s 736 mmHg 38%
    16:00 +36°C° 0.3 mm 3 m/s 736 mmHg 46%
    17:00 +34°C° 0.3 mm 3 m/s 736 mmHg 54%
    18:00 +31°C° 0.3 mm 3 m/s 736 mmHg 62%
    19:00 +30°C° 0.1 mm 3 m/s 737 mmHg 67%
    20:00 +29°C° 0.1 mm 3 m/s 737 mmHg 73%
    21:00 +28°C° 0.1 mm 3 m/s 738 mmHg 78%
    22:00 +28°C° 0 mm 3 m/s 738 mmHg 80%
    23:00 +27°C° 0 mm 3 m/s 738 mmHg 82%

    14 Avril, Mardi

    Heure Température Précipitation Vent Pression Humidité
    00:00 +27°C° 0 mm 2 m/s 737 mmHg 84%
    01:00 +27°C° 0 mm 2 m/s 737 mmHg 85%
    02:00 +27°C° 0 mm 2 m/s 737 mmHg 85%
    03:00 +27°C° 0 mm 2 m/s 736 mmHg 86%
    04:00 +26°C° 0 mm 2 m/s 737 mmHg 87%
    05:00 +26°C° 0 mm 2 m/s 737 mmHg 88%
    06:00 +26°C° 0 mm 1 m/s 737 mmHg 88%
    07:00 +28°C° 0 mm 2 m/s 738 mmHg 78%
    08:00 +30°C° 0 mm 2 m/s 738 mmHg 67%
    09:00 +32°C° 0 mm 2 m/s 739 mmHg 56%
    10:00 +36°C° 0 mm 2 m/s 738 mmHg 50%
    11:00 +38°C° 0 mm 2 m/s 738 mmHg 43%
    12:00 +40°C° 0 mm 1 m/s 737 mmHg 36%
    13:00 +40°C° 0 mm 2 m/s 737 mmHg 35%
    14:00 +40°C° 0 mm 2 m/s 736 mmHg 33%
    15:00 +41°C° 0 mm 2 m/s 736 mmHg 31%
    16:00 +38°C° 0 mm 3 m/s 736 mmHg 39%
    17:00 +36°C° 0 mm 4 m/s 736 mmHg 47%
    18:00 +34°C° 0 mm 5 m/s 736 mmHg 56%
    19:00 +32°C° 0.2 mm 4 m/s 736 mmHg 63%
    20:00 +30°C° 0.2 mm 4 m/s 737 mmHg 71%
    21:00 +28°C° 0.2 mm 4 m/s 737 mmHg 79%
    22:00 +28°C° 0 mm 4 m/s 737 mmHg 80%
    23:00 +28°C° 0 mm 4 m/s 737 mmHg 81%

    15 Avril, Mercredi

    Heure Température Précipitation Vent Pression Humidité
    00:00 +28°C° 0 mm 3 m/s 737 mmHg 82%
    01:00 +28°C° 0 mm 3 m/s 737 mmHg 83%
    02:00 +27°C° 0 mm 3 m/s 737 mmHg 84%
    03:00 +27°C° 0 mm 2 m/s 736 mmHg 85%
    04:00 +27°C° 0 mm 2 m/s 737 mmHg 87%
    05:00 +27°C° 0 mm 1 m/s 737 mmHg 88%
    06:00 +26°C° 0 mm 1 m/s 737 mmHg 90%
    07:00 +28°C° 0 mm 2 m/s 738 mmHg 81%
    08:00 +30°C° 0 mm 2 m/s 738 mmHg 72%
    09:00 +33°C° 0 mm 3 m/s 739 mmHg 64%
    10:00 +35°C° 0 mm 2 m/s 738 mmHg 56%
    11:00 +37°C° 0 mm 2 m/s 738 mmHg 48%
    12:00 +39°C° 0 mm 1 m/s 737 mmHg 41%
    13:00 +37°C° 0 mm 1 m/s 737 mmHg 42%
    14:00 +37°C° 0 mm 1 m/s 736 mmHg 44%
    15:00 +36°C° 0 mm 1 m/s 736 mmHg 46%
    16:00 +35°C° 0.7 mm 2 m/s 736 mmHg 54%
    17:00 +33°C° 0.7 mm 3 m/s 736 mmHg 62%
    18:00 +30°C° 0.7 mm 4 m/s 736 mmHg 70%
    19:00 +29°C° 0.4 mm 3 m/s 737 mmHg 74%
    20:00 +29°C° 0.4 mm 2 m/s 737 mmHg 77%
    21:00 +28°C° 0.4 mm 2 m/s 738 mmHg 80%
    22:00 +28°C° 0.1 mm 2 m/s 738 mmHg 80%
    23:00 +28°C° 0.1 mm 2 m/s 738 mmHg 81%
    Voir plus